Zurück zum Katalog

STARLINK-35172

AktivKommunikationSSO
NORAD 65533·PAYLOAD·🇺🇸 United States

Gestartet Sep 6, 2025 von Cape Canaveral Space Force Station

Loading…

Nächste Überflüge (nächste 24 Stunden)

TLE

AktuellSource: CelesTrak SupGP

Epoche: Sep 14, 2026, 14:07 UTC

1 65533C 25200P   26257.58868056  .00094733  00000+0  29416-2 0  2575
2 65533  97.2842 324.0880 0000970 104.5151  29.8615 15.33382474    16

Verfolge STARLINK-35172 in Echtzeit mit AllMySat

Download on the App Store